Gulfport, MS

2:23 AM CDT on August 29, 2016 (GMT -0500)
Gulfport-Biloxi Regional

Weather History for KGPT - December, 2013

Change the Weather History Date:

Monday, December 16, 2013

  Actual Average Record
Temperature  
Mean Temperature 45 °F -  
Max Temperature 57 °F 61 °F 78 °F (1971)
Min Temperature 33 °F 42 °F 23 °F (1951)
Degree Days  
Heating Degree Days 20    
Moisture  
Dew Point 34 °F    
Average Humidity 73    
Maximum Humidity 89    
Minimum Humidity 33    
Precipitation  
Precipitation 0.00 in - - ()
Sea Level Pressure  
Sea Level Pressure 30.30 in    
Wind  
Wind Speed 2 mph (NW)    
Max Wind Speed 6 mph    
Max Gust Speed -    
Visibility 9 miles    
Events      
Averages and records for this station are not official NWS values.
T = Trace of Precipitation, MM = Missing Value Source: NWS Daily Summary

Daily Weather History Graph

Daily Weather History Graph

Search for Another Location

Airport or City:

Trip Planner

Search our weather history database for the weather conditions in past years. The results will help you decide how hot, cold, wet, or windy it might be!

Date:

Astronomy

Dec. 16, 2013 Rise Set
Actual Time 6:46 AM CST 4:57 PM CST
Civil Twilight 6:19 AM CST 5:24 PM CST
Nautical Twilight 5:49 AM CST 5:54 PM CST
Astronomical Twilight 5:20 AM CST 6:23 PM CST
Moon 4:44 PM CST (12/16) 5:58 AM CST (12/16)
Length of Visible Light 11h 04m
Length of Day
10h 11m
Full, 100% of the Moon is Illuminated
Dec 16
Full
Dec 17
Full
Dec 25
Last Quarter
Jan 1
New
Jan 7
First Quarter

Hourly Weather History & Observations

Time (CST) Temp. Windchill Dew Point Humidity Pressure Visibility Wind Dir Wind Speed Gust Speed Precip Events Conditions
12:53 AM 36.0 °F 33.3 °F 32.0 °F 86% 30.30 in 8.0 mi NNW 3.5 mph - N/A   Clear
1:53 AM 35.1 °F 30.1 °F 30.9 °F 85% 30.30 in 8.0 mi North 5.8 mph - N/A   Clear
2:53 AM 35.1 °F - 30.9 °F 85% 30.30 in 8.0 mi Calm Calm - N/A   Clear
3:53 AM 34.0 °F - 30.0 °F 85% 30.30 in 7.0 mi Calm Calm - N/A   Clear
4:53 AM 33.1 °F 27.7 °F 30.0 °F 89% 30.31 in 7.0 mi NNW 5.8 mph - N/A   Clear
5:53 AM 34.0 °F - 30.0 °F 85% 30.31 in 7.0 mi Calm Calm - N/A   Clear
6:53 AM 33.1 °F - 30.0 °F 89% 30.32 in 5.0 mi Calm Calm - N/A   Clear
7:53 AM 36.0 °F - 32.0 °F 86% 30.33 in 7.0 mi Calm Calm - N/A   Clear
8:53 AM 42.1 °F - 34.0 °F 73% 30.35 in 10.0 mi Calm Calm - N/A   Clear
9:53 AM 46.9 °F - 34.0 °F 61% 30.36 in 10.0 mi North 5.8 mph - N/A   Clear
10:53 AM 52.0 °F - 34.0 °F 50% 30.35 in 10.0 mi Calm Calm - N/A   Clear
11:53 AM 55.0 °F - 30.0 °F 38% 30.30 in 10.0 mi Calm Calm - N/A   Clear
12:53 PM 57.9 °F - 28.9 °F 33% 30.28 in 10.0 mi Calm Calm - N/A   Clear
1:53 PM 57.9 °F - 37.9 °F 47% 30.27 in 10.0 mi South 5.8 mph - N/A   Clear
2:53 PM 57.0 °F - 37.9 °F 49% 30.26 in 10.0 mi South 5.8 mph - N/A   Clear
3:53 PM 55.9 °F - 37.9 °F 51% 30.26 in 10.0 mi South 4.6 mph - N/A   Clear
4:53 PM 52.0 °F - 39.9 °F 63% 30.26 in 10.0 mi Calm Calm - N/A   Clear
5:53 PM 46.0 °F - 39.9 °F 79% 30.28 in 10.0 mi Calm Calm - N/A   Clear
6:53 PM 44.1 °F - 39.0 °F 82% 30.29 in 10.0 mi Calm Calm - N/A   Clear
7:53 PM 42.1 °F - 37.9 °F 85% 30.29 in 10.0 mi Calm Calm - N/A   Clear
8:53 PM 39.9 °F - 37.0 °F 89% 30.30 in 10.0 mi Calm Calm - N/A   Clear
9:53 PM 39.0 °F - 36.0 °F 89% 30.32 in 10.0 mi Calm Calm - N/A   Clear
10:53 PM 39.0 °F - 35.1 °F 86% 30.32 in 10.0 mi Calm Calm - N/A   Clear
11:53 PM 37.9 °F - 35.1 °F 89% 30.30 in 10.0 mi Calm Calm - N/A   Clear